Location: ??????
(56.0120°N, 39.1740°E)
Time: 01:39:02
(UTC+00:00)

Okean 2 Rocket - Pass Details

Date: 14 April 2026
Orbit: 612 x 633 km, 82.5° (Epoch: 20 May)

Event Time Altitude Azimuth Distance (km) Brightness Sun altitude
Exits shadow 21:37:28 56° 276° (W) 746 3.4 -24.3°
Maximum altitude 21:37:39 57° 287° (WNW) 743 3.4 -24.3°
Drops below altitude 10° 21:42:03 10° 6° (N) 2,015 6.8 -24.2°
Sets 21:44:20 0° 11° (N) 2,931 7.9 -24.2°
